Weather History for Big Rapids, MI

Change the Weather History Date:

Saturday, September 8, 2012

  Actual Average Record
Temperature  
Mean Temperature 58 °F -  
Max Temperature 67 °F 75 °F 91 °F (1978)
Min Temperature 49 °F 50 °F 35 °F (1986)
Degree Days  
Heating Degree Days 7    
Growing Degree Days 8 (Base 50)    
Moisture  
Dew Point 50 °F    
Average Humidity 77    
Maximum Humidity 95    
Minimum Humidity 45    
Precipitation  
Precipitation 0.00 in - - ()
Sea Level Pressure  
Sea Level Pressure 29.78 in    
Wind  
Wind Speed 8 mph (WNW)    
Max Wind Speed 22 mph    
Max Gust Speed 32 mph    
Visibility 10 miles    
Events Rain    
Averages and records for this station are not official NWS values.
T = Trace of Precipitation, MM = Missing Value Source: NWS Daily Summary

Daily Weather History Graph

Daily Weather History Graph

Search for Another Location

Airport:

Trip Planner

Search our weather history database for the weather conditions in past years. The results will help you decide how hot, cold, wet, or windy it might be!

Date:

Astronomy

Sep. 08, 2012 Rise Set
Actual Time 7:13 AM EDT 8:04 PM EDT
Civil Twilight 6:44 AM EDT 8:33 PM EDT
Nautical Twilight 6:10 AM EDT 9:07 PM EDT
Astronomical Twilight 5:33 AM EDT 9:43 PM EDT
Moon No Moon Rise 3:09 PM EDT (9/8)
Length of Visible Light 13h 48m
Length of Day
12h 50m
Waning Gibbous, 49% of the Moon is Illuminated
Sep 8
Waning Gibbous
Sep 15
New
Sep 22
First Quarter
Sep 29
Full
Oct 8
Last Quarter

Hourly Weather History & Observations

Time (EDT) Temp. Dew Point Humidity Pressure Visibility Wind Dir Wind Speed Gust Speed Precip Events Conditions
12:34 AM 54.9 °F 52.9 °F 93% 29.79 in 10.0 mi WNW 8.1 mph - N/A   Clear
12:55 AM 53.6 °F 51.8 °F 94% 29.78 in 10.0 mi WNW 8.1 mph - N/A   Clear
1:15 AM 53.8 °F 52.2 °F 94% 29.77 in 10.0 mi WNW 9.2 mph - N/A   Clear
1:34 AM 52.9 °F 51.3 °F 94% 29.77 in 10.0 mi WNW 5.8 mph - N/A   Clear
2:15 AM 52.7 °F 50.9 °F 94% 29.76 in 10.0 mi WNW 8.1 mph - N/A   Scattered Clouds
2:34 AM 52.7 °F 51.1 °F 94% 29.76 in 5.0 mi NW 6.9 mph - N/A   Scattered Clouds
2:55 AM 53.2 °F 51.8 °F 95% 29.75 in 10.0 mi NNW 5.8 mph - N/A   Scattered Clouds
3:15 AM 53.2 °F 51.8 °F 95% 29.75 in 10.0 mi NW 5.8 mph - N/A   Scattered Clouds
3:34 AM 53.4 °F 51.4 °F 93% 29.75 in 10.0 mi North 4.6 mph - N/A   Scattered Clouds
3:55 AM 53.6 °F 51.4 °F 92% 29.75 in 10.0 mi NNW 3.5 mph - N/A   Mostly Cloudy
4:15 AM 53.1 °F 51.1 °F 93% 29.75 in 10.0 mi Calm Calm - N/A   Mostly Cloudy
4:34 AM 52.0 °F 50.2 °F 94% 29.75 in 10.0 mi West 3.5 mph - N/A   Scattered Clouds
4:55 AM 51.3 °F 49.5 °F 94% 29.76 in 7.0 mi Calm Calm - N/A   Clear
5:15 AM 50.0 °F 48.2 °F 94% 29.76 in 7.0 mi Calm Calm - N/A   Scattered Clouds
5:34 AM 49.3 °F 47.7 °F 94% 29.75 in 10.0 mi West 3.5 mph - N/A   Scattered Clouds
5:55 AM 49.5 °F 48.0 °F 95% 29.74 in 10.0 mi Calm Calm - N/A   Clear
6:15 AM 49.3 °F 47.8 °F 95% 29.74 in 10.0 mi NW 4.6 mph - N/A   Scattered Clouds
6:34 AM 49.8 °F 48.2 °F 94% 29.74 in 10.0 mi Calm Calm - N/A   Mostly Cloudy
6:55 AM 50.9 °F 49.5 °F 95% 29.74 in 10.0 mi WNW 4.6 mph - N/A   Mostly Cloudy
7:15 AM 52.7 °F 51.3 °F 95% 29.75 in 10.0 mi WNW 8.1 mph - N/A   Overcast
7:34 AM 53.6 °F 51.8 °F 94% 29.76 in 10.0 mi NW 6.9 mph - N/A Rain Light Rain
7:55 AM 54.1 °F 52.0 °F 92% 29.76 in 10.0 mi WNW 10.4 mph - N/A   Overcast
8:15 AM 54.3 °F 52.0 °F 92% 29.76 in 10.0 mi WNW 9.2 mph - N/A   Overcast
8:34 AM 55.4 °F 52.7 °F 91% 29.77 in 10.0 mi WNW 10.4 mph - N/A   Overcast
8:55 AM 56.5 °F 54.0 °F 91% 29.77 in 10.0 mi WNW 9.2 mph - N/A   Scattered Clouds
9:15 AM 57.4 °F 53.8 °F 88% 29.78 in 10.0 mi WNW 8.1 mph - N/A   Scattered Clouds
9:34 AM 59.9 °F 55.2 °F 84% 29.78 in 10.0 mi WNW 9.2 mph 16.1 mph N/A   Mostly Cloudy
9:54 AM 60.3 °F 55.6 °F 85% 29.78 in 10.0 mi WNW 8.1 mph 17.3 mph N/A   Overcast
10:15 AM 60.8 °F 55.4 °F 82% 29.78 in 10.0 mi NNW 11.5 mph 18.4 mph N/A   Mostly Cloudy
10:34 AM 62.2 °F 55.8 °F 79% 29.78 in 10.0 mi NW 11.5 mph 20.7 mph N/A   Clear
10:55 AM 62.2 °F 52.7 °F 71% 29.78 in 10.0 mi NW 17.3 mph 23.0 mph N/A   Mostly Cloudy
11:15 AM 63.5 °F 53.4 °F 70% 29.78 in 10.0 mi NW 16.1 mph 23.0 mph N/A   Mostly Cloudy
11:34 AM 62.8 °F 52.2 °F 68% 29.78 in 7.0 mi NW 21.9 mph 31.1 mph N/A   Mostly Cloudy
11:55 AM 59.4 °F 51.6 °F 76% 29.79 in 10.0 mi NW 11.5 mph 17.3 mph N/A   Overcast
12:15 PM 63.1 °F 53.1 °F 70% 29.78 in 10.0 mi NW 13.8 mph 20.7 mph N/A   Mostly Cloudy
12:34 PM 63.0 °F 52.2 °F 68% 29.78 in 10.0 mi NNW 13.8 mph 20.7 mph N/A   Overcast
12:55 PM 64.8 °F 51.4 °F 62% 29.78 in 10.0 mi NW 16.1 mph 28.8 mph N/A   Scattered Clouds
1:15 PM 61.7 °F 50.7 °F 67% 29.77 in 10.0 mi NW 9.2 mph 20.7 mph N/A   Mostly Cloudy
1:34 PM 65.8 °F 52.0 °F 61% 29.76 in 10.0 mi NW 15.0 mph 23.0 mph N/A   Mostly Cloudy
1:55 PM 67.3 °F 48.4 °F 51% 29.76 in 10.0 mi NNW 16.1 mph 29.9 mph N/A   Scattered Clouds
2:14 PM 65.7 °F 47.3 °F 51% 29.77 in 10.0 mi WNW 12.7 mph 23.0 mph N/A   Scattered Clouds
2:35 PM 65.7 °F 44.2 °F 46% 29.77 in 10.0 mi WNW 15.0 mph 32.2 mph N/A   Mostly Cloudy
2:55 PM 64.8 °F 44.6 °F 48% 29.78 in 10.0 mi NW 17.3 mph 26.5 mph N/A   Mostly Cloudy
3:14 PM 65.7 °F 43.9 °F 45% 29.77 in 10.0 mi WNW 16.1 mph 20.7 mph N/A   Mostly Cloudy
3:35 PM 65.7 °F 44.2 °F 46% 29.77 in 10.0 mi NW 15.0 mph 21.9 mph N/A   Overcast
3:55 PM 64.9 °F 43.7 °F 46% 29.77 in 10.0 mi NW 10.4 mph 20.7 mph N/A   Overcast
4:14 PM 65.1 °F 44.1 °F 46% 29.77 in 10.0 mi WNW 15.0 mph 26.5 mph N/A   Overcast
4:35 PM 64.4 °F 44.2 °F 48% 29.77 in 10.0 mi NW 17.3 mph 27.6 mph N/A   Overcast
4:54 PM 64.4 °F 45.0 °F 49% 29.78 in 10.0 mi NW 16.1 mph 19.6 mph N/A   Overcast
5:15 PM 65.5 °F 46.6 °F 50% 29.78 in 10.0 mi West 12.7 mph 19.6 mph N/A   Overcast
5:35 PM 63.0 °F 46.9 °F 56% 29.78 in 10.0 mi WNW 12.7 mph 17.3 mph N/A   Overcast
5:54 PM 63.7 °F 46.9 °F 54% 29.78 in 10.0 mi WNW 15.0 mph 21.9 mph N/A   Mostly Cloudy
6:15 PM 63.1 °F 47.3 °F 56% 29.78 in 10.0 mi West 11.5 mph 20.7 mph N/A   Mostly Cloudy
6:35 PM 63.0 °F 47.7 °F 57% 29.79 in 10.0 mi WNW 11.5 mph 19.6 mph N/A   Mostly Cloudy
6:54 PM 62.8 °F 47.3 °F 57% 29.80 in 10.0 mi WNW 8.1 mph - N/A   Overcast
7:15 PM 61.9 °F 46.9 °F 58% 29.80 in 10.0 mi West 12.7 mph - N/A   Mostly Cloudy
7:35 PM 61.3 °F 47.7 °F 61% 29.80 in 10.0 mi West 10.4 mph - N/A   Overcast
7:54 PM 61.2 °F 48.4 °F 63% 29.80 in 10.0 mi WSW 3.5 mph - N/A   Overcast
8:15 PM 60.3 °F 48.4 °F 65% 29.81 in 10.0 mi Calm Calm - N/A   Mostly Cloudy
8:35 PM 57.9 °F 49.5 °F 73% 29.81 in 10.0 mi Calm Calm - N/A   Mostly Cloudy
8:55 PM 55.4 °F 50.7 °F 84% 29.81 in 10.0 mi South 3.5 mph - N/A   Mostly Cloudy
9:14 PM 55.4 °F 50.9 °F 85% 29.82 in 10.0 mi Calm Calm - N/A   Scattered Clouds
9:35 PM 53.4 °F 50.2 °F 89% 29.82 in 10.0 mi WNW 4.6 mph - N/A   Scattered Clouds
10:14 PM 51.8 °F 49.6 °F 92% 29.82 in 10.0 mi Calm Calm - N/A   Scattered Clouds
10:35 PM 51.4 °F 49.6 °F 94% 29.82 in 10.0 mi Calm Calm - N/A   Clear
10:55 PM 50.0 °F 48.2 °F 94% 29.83 in 10.0 mi Calm Calm - N/A   Clear
11:14 PM 50.2 °F 48.4 °F 94% 29.83 in 10.0 mi Calm Calm - N/A   Scattered Clouds
11:35 PM 50.5 °F 48.7 °F 94% 29.83 in 10.0 mi Calm Calm - N/A   Scattered Clouds
11:55 PM 50.5 °F 48.7 °F 94% 29.84 in 10.0 mi Calm Calm - N/A   Scattered Clouds